Location: *
(46.3500°N, 10.9000°E)
Time: 21:00:42
(UTC+00:00)

A-11 Canister half - Pass Details

Date: 21 April 2021
Orbit: 1526 x 1682 km, 47.3° (Epoch: 13 May)

Event Time Altitude Azimuth Distance (km) Brightness Sun altitude
Rises 21:14:15 0° 293° (WNW) 4,941 12.5 -25.5°
Reaches altitude 10° 21:17:52 10° 284° (WNW) 3,947 11.7 -25.9°
Maximum altitude 21:26:20 32° 227° (SW) 2,589 10.0 -26.6°
Enters shadow 21:29:04 28° 200° (SSW) 2,753 9.9 -26.8°
Drops below altitude 10° 21:34:39 10° 169° (S) 3,870 - -27.3°
Sets 21:38:11 0° 160° (SSE) 4,832 - -27.6°
